FW9684 Weather Reports


time (UTC)temp
C
wind
direction
speed
KPH
gust
KPH
rain 1hr
cm
rain 24hr
cm
rain mn
cm
humidity
%
barometer
mb
20260906221513 37 103 16.1 27.4 0.00 0.00 0.00 36 1009.4
20260906220012 36 79 16.1 27.4 0.00 0.00 0.00 37 1009.5
20260906214515 36 38 3.2 17.7 0.00 0.00 0.00 37 1009.6
20260906213013 37 99 12.9 22.5 0.00 0.00 0.00 35 1009.7
20260906211503 37 103 6.4 16.1 0.00 0.00 0.00 35 1010.0
20260906210059 37 98 12.9 20.9 0.00 0.00 0.00 36 1010.2
20260906204556 35 91 11.3 19.3 0.00 0.00 0.00 39 1010.5
20260906203101 34 64 11.3 17.7 0.00 0.00 0.00 40 1010.5
20260906201601 36 70 9.7 19.3 0.00 0.00 0.00 37 1010.6
20260906200051 36 122 8.0 27.4 0.00 0.00 0.00 36 1010.8
20260906194549 35 103 6.4 24.1 0.00 0.00 0.00 40 1010.8
20260906193103 35 88 6.4 20.9 0.00 0.00 0.00 40 1011.1
20260906191545 35 67 14.5 25.7 0.00 0.00 0.00 39 1011.3
20260906190040 34 51 3.2 22.5 0.00 0.00 0.00 41 1011.4
20260906184543 34 77 11.3 22.5 0.00 0.00 0.00 41 1011.5
20260906183036 33 67 9.7 25.7 0.00 0.00 0.00 41 1011.8
20260906181550 34 57 12.9 22.5 0.00 0.00 0.00 41 1012.0
20260906180036 34 53 12.9 25.7 0.00 0.00 0.00 41 1012.1
20260906174536 35 74 19.3 29.0 0.00 0.00 0.00 40 1012.5
20260906173029 35 105 14.5 25.7 0.00 0.00 0.00 40 1012.5
20260906171527 34 78 6.4 19.3 0.00 0.00 0.00 42 1012.7
20260906170022 33 38 4.8 20.9 0.00 0.00 0.00 45 1012.8
20260906164518 33 116 4.8 19.3 0.00 0.00 0.00 44 1012.8
20260906163017 33 47 9.7 19.3 0.00 0.00 0.00 44 1012.7
20260906161516 32 118 6.4 17.7 0.00 0.00 0.00 45 1012.8
20260906160014 33 37 6.4 14.5 0.00 0.00 0.00 45 1012.9
20260906154528 32 202 0.0 4.8 0.00 0.00 0.00 49 1012.8
20260906153015 31 207 3.2 12.9 0.00 0.00 0.00 53 1012.6
20260906151506 31 196 4.8 9.7 0.00 0.00 0.00 53 1012.5
20260906150004 30 154 3.2 9.7 0.00 0.00 0.00 55 1012.4
20260906144613 29 136 3.2 9.7 0.00 0.00 0.00 58 1012.4
20260906143109 29 121 3.2 6.4 0.00 0.00 0.00 59 1012.5
20260906141555 28 90 3.2 6.4 0.00 0.00 0.00 60 1012.6
20260906140054 26 105 0.0 0.0 0.00 0.00 0.00 66 1012.7
20260906134553 24 106 0.0 0.0 0.00 0.00 0.00 73 1012.4
20260906133104 23 106 0.0 0.0 0.00 0.00 0.00 77 1012.4
20260906131550 22 106 0.0 0.0 0.00 0.00 0.00 80 1012.4
20260906124548 21 106 0.0 0.0 0.00 0.00 0.00 79 1012.3
20260906123044 21 106 0.0 0.0 0.00 0.00 0.00 81 1012.1
20260906121542 21 106 0.0 0.0 0.00 0.00 0.00 78 1012.0
20260906120045 21 106 0.0 3.2 0.00 0.00 0.00 80 1011.8
20260906114548 21 106 3.2 4.8 0.00 0.00 0.00 81 1011.5
20260906113036 21 106 1.6 3.2 0.00 0.00 0.00 77 1011.7
20260906111537 21 106 0.0 0.0 0.00 0.00 0.00 79 1011.5
20260906110032 21 106 0.0 0.0 0.00 0.00 0.00 76 1011.2
20260906104534 21 106 0.0 0.0 0.00 0.00 0.00 72 1011.2
20260906103027 21 103 0.0 0.0 0.00 0.00 0.00 71 1011.0
20260906101525 22 103 0.0 0.0 0.00 0.00 0.00 71 1010.9
20260906100027 22 103 0.0 0.0 0.00 0.00 0.00 71 1010.8
20260906094547 22 103 0.0 0.0 0.00 0.00 0.00 67 1010.8
20260906093038 22 103 0.0 0.0 0.00 0.00 0.00 69 1010.7
20260906091516 23 103 0.0 0.0 0.00 0.00 0.00 68 1010.5
20260906090023 23 103 0.0 0.0 0.00 0.00 0.00 68 1010.5
20260906084510 24 103 0.0 3.2 0.00 0.00 0.00 64 1010.6
20260906083006 25 103 1.6 3.2 0.00 0.00 0.00 63 1010.4
20260906081508 25 103 0.0 0.0 0.00 0.00 0.00 61 1010.6
20260906074557 26 103 0.0 4.8 0.00 0.00 0.00 59 1010.7
20260906073053 26 105 3.2 6.4 0.00 0.00 0.00 57 1010.8
20260906071549 27 104 1.6 6.4 0.00 0.00 0.00 55 1010.9
20260906070048 27 112 4.8 11.3 0.00 0.00 0.00 55 1010.9
20260906064544 27 114 4.8 12.9 0.00 0.00 0.00 54 1010.9
20260906063041 27 100 4.8 11.3 0.00 0.00 0.00 52 1011.2
20260906061539 28 108 8.0 12.9 0.00 0.00 0.00 52 1011.4
20260906060036 28 101 3.2 14.5 0.00 0.00 0.00 52 1011.5
20260906054537 28 120 1.6 6.4 0.00 0.00 0.00 51 1011.7
20260906053030 28 93 1.6 9.7 0.00 0.00 0.00 50 1011.7
20260906051532 28 94 4.8 11.3 0.00 0.00 0.00 49 1011.7
20260906050026 28 91 1.6 11.3 0.00 0.00 0.00 49 1011.6
20260906044525 28 92 3.2 11.3 0.00 0.00 0.00 49 1011.5
20260906043025 29 88 1.6 9.7 0.00 0.00 0.00 49 1011.3
20260906041524 29 86 4.8 12.9 0.00 0.00 0.00 48 1011.3
20260906040030 30 88 6.4 12.9 0.00 0.00 0.00 48 1011.2
20260906034523 30 92 4.8 12.9 0.00 0.00 0.00 47 1011.2
20260906033035 30 82 8.0 16.1 0.00 0.00 0.00 46 1011.0
20260906031529 31 90 4.8 14.5 0.00 0.00 0.00 46 1010.7
20260906030021 31 90 8.0 19.3 0.00 0.00 0.00 45 1010.5
20260906024539 31 78 12.9 24.1 0.00 0.00 0.00 45 1010.4
20260906023024 32 82 9.7 20.9 0.00 0.00 0.00 44 1010.3
20260906021519 32 91 11.3 19.3 0.00 0.00 0.00 44 1010.2
20260906020019 32 84 12.9 19.3 0.00 0.00 0.00 42 1010.0
20260906014529 33 70 14.5 20.9 0.00 0.00 0.00 41 1009.8
20260906013035 33 83 6.4 11.3 0.00 0.00 0.00 40 1009.5
20260906011517 34 86 4.8 14.5 0.00 0.00 0.00 40 1009.2
20260906010020 35 86 9.7 19.3 0.00 0.00 0.00 39 1009.2
20260906004516 35 105 9.7 19.3 0.00 0.00 0.00 38 1009.2
20260906003015 36 65 8.0 16.1 0.00 0.00 0.00 37 1009.1
20260906001514 36 83 8.0 16.1 0.00 0.00 0.00 37 1009.0
20260906000014 36 96 6.4 19.3 0.00 0.00 0.00 36 1009.0
20260905234513 36 90 9.7 19.3 0.00 0.00 0.00 35 1008.8
20260905233013 36 90 11.3 20.9 0.00 0.00 0.00 36 1008.7
20260905231514 37 71 8.0 19.3 0.00 0.00 0.00 35 1008.7
20260905230011 37 44 8.0 17.7 0.00 0.00 0.00 36 1008.8
20260905224510 37 69 11.3 20.9 0.00 0.00 0.00 35 1008.8
20260905223005 37 78 6.4 20.9 0.00 0.00 0.00 35 1008.9